P/2021 V2 ( Fuls )

Japanese version
Home page
Updated on March 27, 2023

---------------------------------------------------------------------

* Profile

Discovery Date November 7, 2021
Magnitude 19.7 mag
Discoverer David Carson Fuls (Mt. Lemmon)

* Pictures

* Orbital Elements

Epoch 2023 Feb. 25.0 TT = JDT 2460000.5
T 2023 Jan. 21.40216 TT                                 Rudenko
q   3.4966127            (2000.0)            P               Q
n   0.03615394     Peri.  259.82803     -0.65153425     -0.73843552
a   9.0579988      Node   232.28271     +0.75316658     -0.60221795
e   0.6139751      Incl.   12.69413     +0.09079218     -0.30339170
P  27.3
>From 216 observations 2021 Aug. 7-2022 Dec. 31, mean residual 0".5.

* Magnitudes Graph

        m1 = 10.0 + 5 log d + 10.0 log r(t + 150)

---------------------------------------------------------------------

The orbital elements are published on M.P.E.C. 2022-Y232.
The magnitudes graphs are made with Comet for Windows.

---------------------------------------------------------------------

Copyright(C) Seiichi Yoshida (comet@aerith.net). All rights reserved.